Mount Airy, NC

4:22 AM EDT on September 20, 2019 (GMT -0400)
Mount Airy-Surry County

Weather History for KMWK - July, 2019

Change the Weather History Date:

Saturday, July 27, 2019

  Actual Average (KINT) Record (KINT)
Temperature  
Mean Temperature 73 °F -  
Max Temperature 85 °F 84 °F 98 °F (1987)
Min Temperature 61 °F 67 °F 54 °F (1977)
Cooling Degree Days 8    
Growing Degree Days 23 (Base 50)    
Moisture  
Dew Point 63 °F    
Average Humidity 73    
Maximum Humidity 93    
Minimum Humidity 44    
Precipitation  
Precipitation 0.00 in - - ()
Sea Level Pressure  
Sea Level Pressure 30.32 in    
Wind  
Wind Speed 1 mph (South)    
Max Wind Speed 6 mph    
Max Gust Speed -    
Visibility 10 miles    
Events      
Averages and records for this station are not official NWS values.
T = Trace of Precipitation, MM = Missing Value Source: NWS Daily Summary

Daily Weather History Graph

Daily Weather History Graph

Search for Another Location

Airport or City:

Astronomy

Jul. 27, 2019 Rise Set
Actual Time 6:24 AM EDT 8:32 PM EDT
Civil Twilight 5:55 AM EDT 9:01 PM EDT
Nautical Twilight 5:20 AM EDT 9:36 PM EDT
Astronomical Twilight 4:42 AM EDT 10:14 PM EDT
Moon 2:07 AM EDT (7/27) 4:22 PM EDT (7/27)
Length of Visible Light 15h 05m
Length of Day
14h 08m
Waning Crescent, 24% of the Moon is Illuminated
Jul 27
Waning Crescent
Jul 31
New
Aug 7
First Quarter
Aug 15
Full
Aug 23
Last Quarter

Hourly Weather History & Observations

Time (EDT) Temp. Heat Index Dew Point Humidity Pressure Visibility Wind Dir Wind Speed Gust Speed Precip Events Conditions
12:00 AM 67.1 °F - 63.5 °F 88% 30.33 in 10.0 mi Calm Calm - N/A   Clear
12:15 AM 66.2 °F - 63.0 °F 89% 30.33 in 10.0 mi Calm Calm - N/A   Clear
12:40 AM 66.4 °F - 63.1 °F 89% 30.33 in 10.0 mi Calm Calm - N/A   Clear
1:00 AM 66.2 °F - 63.0 °F 89% 30.33 in 10.0 mi Calm Calm - N/A   Clear
1:20 AM 64.9 °F - 62.2 °F 91% 30.33 in 10.0 mi Calm Calm - N/A   Clear
1:30 AM 64.9 °F - 61.9 °F 90% 30.33 in 10.0 mi Calm Calm - N/A   Clear
2:00 AM 64.2 °F - 61.3 °F 90% 30.33 in 10.0 mi Calm Calm - N/A   Clear
2:15 AM 63.9 °F - 61.2 °F 91% 30.33 in 10.0 mi Calm Calm - N/A   Clear
2:40 AM 63.7 °F - 61.2 °F 91% 30.33 in 10.0 mi Calm Calm - N/A   Clear
3:00 AM 63.7 °F - 61.0 °F 91% 30.32 in 10.0 mi Calm Calm - N/A   Clear
3:20 AM 62.6 °F - 60.1 °F 91% 30.33 in 10.0 mi Calm Calm - N/A   Clear
3:40 AM 63.1 °F - 60.8 °F 92% 30.32 in 10.0 mi Calm Calm - N/A   Clear
4:00 AM 63.1 °F - 60.8 °F 92% 30.32 in 10.0 mi Calm Calm - N/A   Clear
4:20 AM 62.1 °F - 59.7 °F 92% 30.32 in 10.0 mi Calm Calm - N/A   Clear
4:40 AM 62.6 °F - 59.9 °F 91% 30.32 in 10.0 mi Calm Calm - N/A   Clear
4:55 AM 61.7 °F - 59.2 °F 91% 30.32 in 10.0 mi Calm Calm - N/A   Clear
5:20 AM 62.2 °F - 59.9 °F 92% 30.33 in 10.0 mi Calm Calm - N/A   Clear
5:40 AM 61.3 °F - 59.0 °F 92% 30.33 in 10.0 mi Calm Calm - N/A   Clear
6:00 AM 61.3 °F - 59.2 °F 93% 30.34 in 10.0 mi Calm Calm - N/A   Clear
6:20 AM 61.3 °F - 59.0 °F 92% 30.34 in 10.0 mi Calm Calm - N/A   Clear
6:40 AM 61.2 °F - 59.0 °F 93% 30.35 in 10.0 mi Calm Calm - N/A   Clear
7:00 AM 61.7 °F - 59.0 °F 91% 30.35 in 10.0 mi Calm Calm - N/A   Clear
7:05 AM 61.7 °F - 59.2 °F 91% 30.35 in 10.0 mi Calm Calm - N/A   Clear
7:40 AM 64.4 °F - 61.7 °F 91% 30.36 in 10.0 mi Calm Calm - N/A   Clear
7:45 AM 65.1 °F - 62.2 °F 90% 30.36 in 10.0 mi Calm Calm - N/A   Clear
8:15 AM 67.3 °F - 63.7 °F 88% 30.36 in 10.0 mi Calm Calm - N/A   Clear
8:35 AM 68.5 °F - 64.8 °F 88% 30.37 in 10.0 mi Calm Calm - N/A   Clear
9:00 AM 71.1 °F - 66.4 °F 85% 30.37 in 10.0 mi Calm Calm - N/A   Clear
9:15 AM 72.7 °F - 66.6 °F 81% 30.37 in 10.0 mi Calm Calm - N/A   Clear
9:35 AM 74.8 °F - 67.6 °F 78% 30.36 in 10.0 mi Calm Calm - N/A   Clear
9:55 AM 75.7 °F - 66.7 °F 74% 30.36 in 10.0 mi Calm Calm - N/A   Clear
10:20 AM 77.9 °F - 67.3 °F 70% 30.36 in 10.0 mi Calm Calm - N/A   Clear
10:40 AM 78.1 °F - 66.9 °F 68% 30.36 in 10.0 mi Calm Calm - N/A   Clear
11:00 AM 78.4 °F - 66.7 °F 67% 30.36 in 10.0 mi WSW 3.5 mph - N/A   Clear
11:10 AM 78.8 °F - 66.7 °F 66% 30.36 in 10.0 mi West 3.5 mph - N/A   Clear
11:40 AM 80.1 °F 82.0 °F 65.7 °F 61% 30.35 in 10.0 mi Calm Calm - N/A   Clear
11:50 AM 81.0 °F 82.7 °F 64.9 °F 58% 30.35 in 10.0 mi Calm Calm - N/A   Clear
12:20 PM 82.0 °F 83.8 °F 64.8 °F 56% 30.34 in 10.0 mi Calm Calm - N/A   Clear
12:40 PM 81.5 °F 82.8 °F 63.5 °F 54% 30.34 in 10.0 mi SSE 3.5 mph - N/A   Clear
1:00 PM 82.6 °F 83.8 °F 63.1 °F 52% 30.33 in 10.0 mi Calm Calm - N/A   Clear
1:20 PM 82.9 °F 83.8 °F 62.6 °F 50% 30.33 in 10.0 mi Calm Calm - N/A   Clear
1:30 PM 82.6 °F 83.4 °F 62.4 °F 50% 30.33 in 10.0 mi Calm Calm - N/A   Clear
2:00 PM 83.7 °F 84.9 °F 63.5 °F 51% 30.31 in 10.0 mi SE 4.6 mph - N/A   Clear
2:20 PM 84.6 °F 85.6 °F 63.3 °F 49% 30.31 in 10.0 mi SE 5.8 mph - N/A   Clear
2:40 PM 84.2 °F 85.2 °F 63.3 °F 49% 30.30 in 10.0 mi SW 3.5 mph - N/A   Clear
3:00 PM 83.7 °F 84.3 °F 62.2 °F 48% 30.31 in 10.0 mi SSW 4.6 mph - N/A   Clear
3:20 PM 84.2 °F 84.8 °F 62.2 °F 47% 30.30 in 10.0 mi Calm Calm - N/A   Scattered Clouds
4:00 PM 84.9 °F 85.2 °F 61.7 °F 45% 30.29 in 10.0 mi SSE 5.8 mph - N/A   Scattered Clouds
4:15 PM 84.6 °F 85.4 °F 62.6 °F 48% 30.29 in 10.0 mi East 3.5 mph - N/A   Clear
4:40 PM 85.3 °F 85.4 °F 61.2 °F 44% 30.28 in 10.0 mi ESE 5.8 mph - N/A   Clear
5:00 PM 85.1 °F 85.9 °F 62.8 °F 47% 30.27 in 10.0 mi Calm Calm - N/A   Clear
5:20 PM 84.9 °F 85.4 °F 61.9 °F 46% 30.27 in 10.0 mi SSW 3.5 mph - N/A   Clear
5:40 PM 84.9 °F 85.6 °F 62.4 °F 47% 30.27 in 10.0 mi South 4.6 mph - N/A   Clear
6:00 PM 84.2 °F 84.6 °F 61.3 °F 46% 30.27 in 10.0 mi South 3.5 mph - N/A   Clear
6:20 PM 84.0 °F 84.5 °F 61.9 °F 47% 30.26 in 10.0 mi Calm Calm - N/A   Clear
6:40 PM 83.3 °F 84.3 °F 62.8 °F 50% 30.26 in 10.0 mi SSW 4.6 mph - N/A   Clear
7:00 PM 82.9 °F 84.0 °F 63.1 °F 51% 30.26 in 10.0 mi Calm Calm - N/A   Clear
7:20 PM 82.6 °F 84.1 °F 64.4 °F 54% 30.26 in 10.0 mi Calm Calm - N/A   Clear
7:30 PM 81.5 °F 83.4 °F 65.3 °F 58% 30.26 in 10.0 mi Calm Calm - N/A   Clear
8:00 PM 80.1 °F 81.9 °F 64.9 °F 60% 30.27 in 10.0 mi Calm Calm - N/A   Clear
8:15 PM 77.7 °F - 68.7 °F 74% 30.26 in 10.0 mi Calm Calm - N/A   Clear
8:40 PM 74.5 °F - 68.0 °F 80% 30.27 in 10.0 mi Calm Calm - N/A   Clear
9:00 PM 73.9 °F - 68.0 °F 82% 30.27 in 10.0 mi Calm Calm - N/A   Clear
9:20 PM 72.9 °F - 66.9 °F 82% 30.28 in 10.0 mi Calm Calm - N/A   Scattered Clouds
9:55 PM 71.2 °F - 66.2 °F 84% 30.29 in 10.0 mi Calm Calm - N/A   Clear
10:20 PM 72.0 °F - 65.8 °F 81% 30.29 in 10.0 mi Calm Calm - N/A   Clear
10:40 PM 69.8 °F - 65.3 °F 86% 30.29 in 10.0 mi Calm Calm - N/A   Clear
11:00 PM 70.2 °F - 64.9 °F 83% 30.29 in 10.0 mi Calm Calm - N/A   Clear
11:15 PM 70.5 °F - 65.1 °F 83% 30.29 in 10.0 mi Calm Calm - N/A   Clear